| time (UTC) | temp F | wind direction | speed MPH | gust MPH | rain 1hr in | rain 24hr in | rain mn in | humidity % | barometer mb |
| 20260505014402 | 67 | 193 | 2.0 | 5.0 | 0.00 | 0.00 | 0.00 | 60 | 1009.0 |
| 20260505013901 | 67 | 15 | 2.0 | 5.0 | 0.00 | 0.00 | 0.00 | 59 | 1009.1 |
| 20260505013402 | 68 | 247 | 2.0 | 10.0 | 0.00 | 0.00 | 0.00 | 58 | 1009.1 |
| 20260505012901 | 69 | 326 | 2.0 | 10.0 | 0.00 | 0.00 | 0.00 | 56 | 1009.1 |
| 20260505012400 | 70 | 8 | 2.0 | 3.0 | 0.00 | 0.00 | 0.00 | 56 | 1009.0 |
| 20260505011859 | 70 | 73 | 2.0 | 4.0 | 0.00 | 0.00 | 0.00 | 56 | 1009.1 |
| 20260505011359 | 70 | 314 | 2.0 | 4.0 | 0.00 | 0.00 | 0.00 | 54 | 1009.1 |
| 20260505010857 | 71 | 1 | 2.0 | 4.0 | 0.00 | 0.00 | 0.00 | 53 | 1009.1 |
| 20260505010356 | 71 | 351 | 2.0 | 7.0 | 0.00 | 0.00 | 0.00 | 51 | 1009.1 |
| 20260505005855 | 72 | 329 | 2.0 | 7.0 | 0.00 | 0.00 | 0.00 | 50 | 1009.1 |
| 20260505005354 | 73 | 331 | 2.0 | 7.0 | 0.00 | 0.00 | 0.00 | 49 | 1009.0 |
| 20260505004854 | 73 | 238 | 2.0 | 7.0 | 0.00 | 0.00 | 0.00 | 49 | 1009.0 |
| 20260505004353 | 73 | 73 | 2.0 | 8.0 | 0.00 | 0.00 | 0.00 | 48 | 1009.1 |
| 20260505003856 | 74 | 273 | 2.0 | 8.0 | 0.00 | 0.00 | 0.00 | 48 | 1009.0 |
| 20260505003359 | 75 | 3 | 2.0 | 5.0 | 0.00 | 0.00 | 0.00 | 47 | 1009.0 |
| 20260505003354 | 75 | 252 | 2.0 | 8.0 | 0.00 | 0.00 | 0.00 | 46 | 1009.1 |
| 20260505002355 | 75 | 290 | 2.0 | 9.0 | 0.00 | 0.00 | 0.00 | 47 | 1009.0 |
| 20260505001855 | 75 | 156 | 2.0 | 9.0 | 0.00 | 0.00 | 0.00 | 46 | 1008.9 |
| 20260505001355 | 76 | 251 | 2.0 | 6.0 | 0.00 | 0.00 | 0.00 | 46 | 1009.0 |
| 20260505000853 | 76 | 354 | 2.0 | 5.0 | 0.00 | 0.00 | 0.00 | 45 | 1008.9 |
| 20260505000353 | 76 | 297 | 1.0 | 4.0 | 0.00 | 0.00 | 0.00 | 47 | 1008.9 |
| 20260504235849 | 76 | 260 | 2.0 | 7.0 | 0.00 | 0.00 | 0.00 | 47 | 1008.9 |
| 20260504235351 | 76 | 253 | 2.0 | 7.0 | 0.00 | 0.00 | 0.00 | 47 | 1008.9 |
| 20260504234850 | 77 | 252 | 1.0 | 5.0 | 0.00 | 0.00 | 0.00 | 46 | 1008.8 |
| 20260504234351 | 77 | 186 | 1.0 | 6.0 | 0.00 | 0.00 | 0.00 | 47 | 1008.8 |
| 20260504233850 | 76 | 346 | 1.0 | 6.0 | 0.00 | 0.00 | 0.00 | 48 | 1008.9 |
| 20260504233356 | 76 | 240 | 2.0 | 5.0 | 0.00 | 0.00 | 0.00 | 47 | 1009.0 |
| 20260504233350 | 76 | 340 | 2.0 | 5.0 | 0.00 | 0.00 | 0.00 | 47 | 1008.9 |
| 20260504232850 | 75 | 229 | 2.0 | 5.0 | 0.00 | 0.00 | 0.00 | 47 | 1008.9 |
| 20260504231849 | 76 | 283 | 2.0 | 5.0 | 0.00 | 0.00 | 0.00 | 47 | 1009.0 |
| 20260504231356 | 76 | 140 | 2.0 | 5.0 | 0.00 | 0.00 | 0.00 | 48 | 1009.0 |
| 20260504231350 | 76 | 219 | 2.0 | 5.0 | 0.00 | 0.00 | 0.00 | 48 | 1009.0 |
| 20260504230355 | 76 | 146 | 2.0 | 6.0 | 0.00 | 0.00 | 0.00 | 49 | 1009.3 |
| 20260504230349 | 76 | 182 | 2.0 | 4.0 | 0.00 | 0.00 | 0.00 | 49 | 1009.3 |
| 20260504225349 | 76 | 211 | 2.0 | 6.0 | 0.00 | 0.00 | 0.00 | 48 | 1009.3 |
| 20260504224856 | 76 | 281 | 2.0 | 5.0 | 0.00 | 0.00 | 0.00 | 49 | 1009.4 |
| 20260504224852 | 76 | 172 | 2.0 | 5.0 | 0.00 | 0.00 | 0.00 | 49 | 1009.4 |
| 20260504224514 | 76 | 127 | 2.0 | 5.0 | 0.00 | 0.00 | 0.00 | 50 | 1009.4 |
| 20260504223350 | 74 | 207 | 2.0 | 6.0 | 0.00 | 0.00 | 0.00 | 50 | 1009.4 |
| 20260504222849 | 74 | 276 | 2.0 | 6.0 | 0.00 | 0.00 | 0.00 | 50 | 1009.5 |
| 20260504222349 | 74 | 286 | 2.0 | 5.0 | 0.00 | 0.00 | 0.00 | 51 | 1009.5 |
| 20260504221850 | 74 | 271 | 3.0 | 6.0 | 0.00 | 0.00 | 0.00 | 50 | 1009.5 |
| 20260504221349 | 74 | 259 | 3.0 | 6.0 | 0.00 | 0.00 | 0.00 | 51 | 1009.5 |
| 20260504220851 | 75 | 226 | 2.0 | 7.0 | 0.00 | 0.00 | 0.00 | 50 | 1009.6 |
| 20260504220350 | 75 | 262 | 2.0 | 7.0 | 0.00 | 0.00 | 0.00 | 52 | 1009.7 |
| 20260504215849 | 74 | 287 | 2.0 | 4.0 | 0.00 | 0.00 | 0.00 | 51 | 1009.7 |
| 20260504215352 | 74 | 68 | 1.0 | 4.0 | 0.00 | 0.00 | 0.00 | 51 | 1009.7 |
| 20260504214851 | 75 | 262 | 1.0 | 5.0 | 0.00 | 0.00 | 0.00 | 51 | 1009.8 |
| 20260504214355 | 74 | 220 | 2.0 | 7.0 | 0.00 | 0.00 | 0.00 | 52 | 1009.7 |
| 20260504214349 | 74 | 328 | 2.0 | 7.0 | 0.00 | 0.00 | 0.00 | 52 | 1009.7 |
| 20260504213349 | 74 | 215 | 2.0 | 7.0 | 0.00 | 0.00 | 0.00 | 51 | 1009.8 |
| 20260504212845 | 74 | 278 | 2.0 | 5.0 | 0.00 | 0.00 | 0.00 | 54 | 1009.9 |
| 20260504212347 | 73 | 306 | 3.0 | 11.0 | 0.00 | 0.00 | 0.00 | 53 | 1009.9 |
| 20260504211847 | 73 | 295 | 3.0 | 11.0 | 0.00 | 0.00 | 0.00 | 52 | 1010.0 |
| 20260504211349 | 73 | 257 | 3.0 | 6.0 | 0.00 | 0.00 | 0.00 | 53 | 1010.0 |
| 20260504210850 | 73 | 113 | 2.0 | 6.0 | 0.00 | 0.00 | 0.00 | 53 | 1010.1 |
| 20260504210351 | 73 | 179 | 2.0 | 5.0 | 0.00 | 0.00 | 0.00 | 53 | 1010.2 |
| 20260504210345 | 73 | 269 | 2.0 | 8.0 | 0.00 | 0.00 | 0.00 | 54 | 1010.1 |
| 20260504205844 | 73 | 170 | 2.0 | 8.0 | 0.00 | 0.00 | 0.00 | 52 | 1010.2 |
| 20260504204846 | 72 | 289 | 2.0 | 5.0 | 0.00 | 0.00 | 0.00 | 54 | 1010.2 |
| 20260504204347 | 71 | 202 | 3.0 | 6.0 | 0.00 | 0.00 | 0.00 | 55 | 1010.2 |
| 20260504204343 | 72 | 44 | 2.0 | 6.0 | 0.00 | 0.00 | 0.00 | 56 | 1010.3 |
| 20260504203344 | 71 | 293 | 3.0 | 8.0 | 0.00 | 0.00 | 0.00 | 58 | 1010.1 |
| 20260504202845 | 70 | 169 | 3.0 | 8.0 | 0.00 | 0.00 | 0.00 | 56 | 1010.2 |
| 20260504202349 | 71 | 153 | 3.0 | 8.0 | 0.00 | 0.00 | 0.00 | 55 | 1010.2 |
| 20260504201844 | 70 | 243 | 2.0 | 7.0 | 0.00 | 0.00 | 0.00 | 57 | 1010.2 |
| 20260504201342 | 71 | 191 | 2.0 | 7.0 | 0.00 | 0.00 | 0.00 | 55 | 1010.3 |
| 20260504200840 | 70 | 155 | 2.0 | 5.0 | 0.00 | 0.00 | 0.00 | 57 | 1010.4 |
| 20260504200341 | 70 | 71 | 2.0 | 5.0 | 0.00 | 0.00 | 0.00 | 56 | 1010.3 |
| 20260504195838 | 70 | 240 | 2.0 | 7.0 | 0.00 | 0.00 | 0.00 | 56 | 1010.4 |
| 20260504195340 | 71 | 108 | 1.0 | 4.0 | 0.00 | 0.00 | 0.00 | 55 | 1010.4 |
| 20260504195335 | 70 | 293 | 2.0 | 7.0 | 0.00 | 0.00 | 0.00 | 56 | 1010.4 |
| 20260504194338 | 70 | 219 | 2.0 | 7.0 | 0.00 | 0.00 | 0.00 | 57 | 1010.3 |
| 20260504193837 | 69 | 287 | 2.0 | 7.0 | 0.00 | 0.00 | 0.00 | 59 | 1010.4 |
| 20260504193337 | 69 | 211 | 2.0 | 6.0 | 0.00 | 0.00 | 0.00 | 57 | 1010.4 |
| 20260504192833 | 69 | 276 | 2.0 | 6.0 | 0.00 | 0.00 | 0.00 | 57 | 1010.5 |
| 20260504192344 | 68 | 242 | 2.0 | 6.0 | 0.00 | 0.00 | 0.00 | 59 | 1010.6 |
| 20260504192339 | 69 | 338 | 1.0 | 4.0 | 0.00 | 0.00 | 0.00 | 59 | 1010.5 |
| 20260504191337 | 68 | 300 | 2.0 | 6.0 | 0.00 | 0.00 | 0.00 | 58 | 1010.5 |
| 20260504190835 | 69 | 23 | 2.0 | 7.0 | 0.00 | 0.00 | 0.00 | 60 | 1010.6 |
| 20260504190333 | 69 | 27 | 2.0 | 7.0 | 0.00 | 0.00 | 0.00 | 57 | 1010.6 |
| 20260504185833 | 69 | 158 | 2.0 | 6.0 | 0.00 | 0.00 | 0.00 | 60 | 1010.6 |
| 20260504185334 | 68 | 276 | 3.0 | 8.0 | 0.00 | 0.00 | 0.00 | 62 | 1010.7 |
| 20260504184840 | 68 | 165 | 2.0 | 7.0 | 0.00 | 0.00 | 0.00 | 62 | 1010.8 |
| 20260504184835 | 68 | 195 | 3.0 | 8.0 | 0.00 | 0.00 | 0.00 | 59 | 1010.7 |
| 20260504183839 | 66 | 186 | 4.0 | 8.0 | 0.00 | 0.00 | 0.00 | 61 | 1010.8 |
| 20260504183834 | 67 | 146 | 3.0 | 8.0 | 0.00 | 0.00 | 0.00 | 61 | 1010.8 |
| 20260504183456 | 66 | 121 | 3.0 | 8.0 | 0.00 | 0.00 | 0.00 | 62 | 1010.8 |
| 20260504182338 | 67 | 71 | 2.0 | 7.0 | 0.00 | 0.00 | 0.00 | 61 | 1010.8 |
| 20260504182332 | 67 | 135 | 2.0 | 6.0 | 0.00 | 0.00 | 0.00 | 60 | 1010.8 |
| 20260504181331 | 66 | 138 | 2.0 | 8.0 | 0.00 | 0.00 | 0.00 | 65 | 1010.8 |
| 20260504180831 | 66 | 98 | 2.0 | 8.0 | 0.00 | 0.00 | 0.00 | 62 | 1010.8 |
| 20260504180332 | 65 | 127 | 3.0 | 6.0 | 0.00 | 0.00 | 0.00 | 64 | 1010.8 |
| 20260504175831 | 65 | 101 | 3.0 | 7.0 | 0.00 | 0.00 | 0.00 | 63 | 1010.8 |
| 20260504175333 | 65 | 73 | 3.0 | 7.0 | 0.00 | 0.00 | 0.00 | 64 | 1010.8 |
| 20260504174830 | 65 | 257 | 3.0 | 6.0 | 0.00 | 0.00 | 0.00 | 65 | 1010.8 |
| 20260504174332 | 65 | 117 | 2.0 | 6.0 | 0.00 | 0.00 | 0.00 | 64 | 1010.7 |
| 20260504173830 | 64 | 150 | 3.0 | 8.0 | 0.00 | 0.00 | 0.00 | 65 | 1010.7 |
| 20260504173329 | 64 | 158 | 2.0 | 8.0 | 0.00 | 0.00 | 0.00 | 66 | 1010.7 |
| 20260504172827 | 64 | 308 | 3.0 | 6.0 | 0.00 | 0.00 | 0.00 | 67 | 1010.7 |
| 20260504172328 | 63 | 327 | 3.0 | 6.0 | 0.00 | 0.00 | 0.00 | 66 | 1010.7 |
| 20260504171828 | 63 | 226 | 2.0 | 6.0 | 0.00 | 0.00 | 0.00 | 66 | 1010.7 |
| 20260504171328 | 64 | 265 | 2.0 | 6.0 | 0.00 | 0.00 | 0.00 | 67 | 1010.7 |
| 20260504170828 | 64 | 122 | 2.0 | 6.0 | 0.00 | 0.00 | 0.00 | 65 | 1010.7 |
| 20260504170328 | 64 | 297 | 2.0 | 3.0 | 0.00 | 0.00 | 0.00 | 66 | 1010.7 |
| 20260504160323 | 60 | 160 | 2.0 | 6.0 | 0.00 | 0.00 | 0.00 | 69 | 1010.4 |
| 20260504150820 | 60 | 288 | 0.0 | 2.0 | 0.00 | 0.00 | 0.00 | 70 | 1009.9 |
| 20260504150320 | 60 | 25 | 0.0 | 2.0 | 0.00 | 0.00 | 0.00 | 70 | 1010.0 |
| 20260504141326 | 55 | 39 | 0.0 | 0.0 | 0.00 | 0.00 | 0.00 | 79 | 1009.7 |
| 20260504141321 | 56 | 39 | 0.0 | 0.0 | 0.00 | 0.00 | 0.00 | 79 | 1009.7 |
| 20260504140319 | 55 | 39 | 0.0 | 0.0 | 0.00 | 0.00 | 0.00 | 80 | 1009.7 |
| 20260504130820 | 51 | 39 | 0.0 | 0.0 | 0.00 | 0.00 | 0.00 | 80 | 1008.9 |
| 20260504130319 | 51 | 39 | 0.0 | 0.0 | 0.00 | 0.00 | 0.00 | 80 | 1008.9 |
| 20260504120317 | 52 | 39 | 0.0 | 0.0 | 0.00 | 0.00 | 0.00 | 78 | 1008.7 |
| 20260504110307 | 53 | 39 | 0.0 | 0.0 | 0.00 | 0.00 | 0.00 | 74 | 1008.7 |
| 20260504100258 | 55 | 39 | 0.0 | 0.0 | 0.00 | 0.00 | 0.00 | 68 | 1008.5 |
| 20260504081753 | 57 | 39 | 0.0 | 0.0 | 0.00 | 0.00 | 0.00 | 61 | 1008.4 |
| 20260504081252 | 57 | 39 | 0.0 | 0.0 | 0.00 | 0.00 | 0.00 | 61 | 1008.4 |
| 20260504080751 | 57 | 39 | 0.0 | 0.0 | 0.00 | 0.00 | 0.00 | 61 | 1008.5 |
| 20260504080253 | 58 | 39 | 0.0 | 0.0 | 0.00 | 0.00 | 0.00 | 59 | 1008.5 |
| 20260504070256 | 59 | 39 | 0.0 | 0.0 | 0.00 | 0.00 | 0.00 | 57 | 1008.6 |
| 20260504070251 | 59 | 39 | 0.0 | 0.0 | 0.00 | 0.00 | 0.00 | 58 | 1008.6 |
| 20260504060245 | 60 | 39 | 0.0 | 1.0 | 0.00 | 0.00 | 0.00 | 59 | 1008.5 |
| 20260504050739 | 65 | 39 | 1.0 | 2.0 | 0.00 | 0.00 | 0.00 | 48 | 1008.3 |
| 20260504050245 | 65 | 47 | 0.0 | 2.0 | 0.00 | 0.00 | 0.00 | 51 | 1008.3 |
| 20260504050240 | 65 | 39 | 0.0 | 2.0 | 0.00 | 0.00 | 0.00 | 49 | 1008.3 |
| 20260504045238 | 65 | 47 | 0.0 | 2.0 | 0.00 | 0.00 | 0.00 | 47 | 1008.3 |
| 20260504044737 | 65 | 27 | 0.0 | 3.0 | 0.00 | 0.00 | 0.00 | 50 | 1008.3 |
| 20260504044236 | 65 | 30 | 0.0 | 3.0 | 0.00 | 0.00 | 0.00 | 47 | 1008.3 |
| 20260504043738 | 66 | 44 | 0.0 | 1.0 | 0.00 | 0.00 | 0.00 | 49 | 1008.3 |
| 20260504043239 | 66 | 44 | 0.0 | 1.0 | 0.00 | 0.00 | 0.00 | 49 | 1008.2 |
| 20260504042737 | 67 | 44 | 0.0 | 2.0 | 0.00 | 0.00 | 0.00 | 48 | 1008.2 |
| 20260504042238 | 67 | 44 | 0.0 | 2.0 | 0.00 | 0.00 | 0.00 | 49 | 1008.2 |
| 20260504041737 | 68 | 24 | 1.0 | 5.0 | 0.00 | 0.00 | 0.00 | 47 | 1008.1 |
| 20260504041245 | 68 | 53 | 1.0 | 3.0 | 0.00 | 0.00 | 0.00 | 46 | 1008.1 |
| 20260504041238 | 68 | 21 | 1.0 | 5.0 | 0.00 | 0.00 | 0.00 | 44 | 1008.1 |
| 20260504040907 | 68 | 50 | 1.0 | 3.0 | 0.00 | 0.00 | 0.00 | 43 | 1008.1 |
| 20260504035735 | 67 | 23 | 0.0 | 1.0 | 0.00 | 0.00 | 0.00 | 48 | 1008.1 |
| 20260504035234 | 67 | 23 | 0.0 | 0.0 | 0.00 | 0.00 | 0.00 | 51 | 1008.1 |
| 20260504034735 | 68 | 22 | 0.0 | 1.0 | 0.00 | 0.00 | 0.00 | 50 | 1008.1 |
| 20260504034241 | 70 | 22 | 0.0 | 1.0 | 0.00 | 0.00 | 0.00 | 44 | 1008.0 |
| 20260504034234 | 69 | 22 | 0.0 | 1.0 | 0.00 | 0.00 | 0.00 | 50 | 1008.0 |
| 20260504033734 | 69 | 22 | 0.0 | 1.0 | 0.00 | 0.00 | 0.00 | 47 | 1008.0 |
| 20260504032734 | 71 | 23 | 0.0 | 3.0 | 0.00 | 0.00 | 0.00 | 43 | 1008.0 |
| 20260504032235 | 71 | 22 | 0.0 | 3.0 | 0.00 | 0.00 | 0.00 | 48 | 1008.0 |
| 20260504031737 | 71 | 75 | 0.0 | 1.0 | 0.00 | 0.00 | 0.00 | 44 | 1008.0 |
| 20260504031732 | 72 | 76 | 0.0 | 2.0 | 0.00 | 0.00 | 0.00 | 46 | 1008.0 |
| 20260504030734 | 73 | 75 | 0.0 | 2.0 | 0.00 | 0.00 | 0.00 | 42 | 1008.1 |
| 20260504030230 | 73 | 37 | 1.0 | 5.0 | 0.00 | 0.00 | 0.00 | 40 | 1008.0 |
| 20260504025730 | 74 | 40 | 1.0 | 5.0 | 0.00 | 0.00 | 0.00 | 41 | 1007.9 |
| 20260504025237 | 74 | 83 | 1.0 | 3.0 | 0.00 | 0.00 | 0.00 | 39 | 1007.9 |
| 20260504025230 | 74 | 26 | 1.0 | 3.0 | 0.00 | 0.00 | 0.00 | 40 | 1007.9 |
| 20260504024854 | 74 | 34 | 1.0 | 3.0 | 0.00 | 0.00 | 0.00 | 41 | 1007.9 |
| 20260504023730 | 75 | 43 | 1.0 | 4.0 | 0.00 | 0.00 | 0.00 | 40 | 1007.9 |
| 20260504023231 | 75 | 44 | 1.0 | 4.0 | 0.00 | 0.00 | 0.00 | 39 | 1007.9 |
| 20260504022732 | 75 | 54 | 1.0 | 4.0 | 0.00 | 0.00 | 0.00 | 40 | 1007.9 |
| 20260504022235 | 76 | 20 | 1.0 | 4.0 | 0.00 | 0.00 | 0.00 | 39 | 1007.9 |
| 20260504022229 | 76 | 7 | 1.0 | 3.0 | 0.00 | 0.00 | 0.00 | 42 | 1007.9 |
| 20260504021227 | 76 | 16 | 1.0 | 4.0 | 0.00 | 0.00 | 0.00 | 39 | 1007.9 |
| 20260504020726 | 77 | 84 | 1.0 | 4.0 | 0.00 | 0.00 | 0.00 | 38 | 1008.0 |
| 20260504020232 | 77 | 23 | 1.0 | 5.0 | 0.00 | 0.00 | 0.00 | 37 | 1008.0 |
| 20260504020226 | 77 | 288 | 1.0 | 4.0 | 0.00 | 0.00 | 0.00 | 38 | 1007.9 |
| 20260504015226 | 78 | 79 | 1.0 | 5.0 | 0.00 | 0.00 | 0.00 | 37 | 1008.0 |
| 20260504014725 | 78 | 109 | 1.0 | 5.0 | 0.00 | 0.00 | 0.00 | 36 | 1008.1 |